Weather reports worldwide

Advertisment
Catania/Sigonella, Italy (16459): temperature & dewpoint: 15.05.2019 13:00:00 - 21.05.2019 13:00:00 (CEST)Catania/Sigonella, Italy (16459): wind speed: 15.05.2019 13:00:00 - 21.05.2019 13:00:00 (CEST)Catania/Sigonella, Italy (16459): wind direction: 15.05.2019 13:00:00 - 21.05.2019 13:00:00 (CEST)Catania/Sigonella, Italy (16459): reduced air pressure: 15.05.2019 13:00:00 - 21.05.2019 13:00:00 (CEST)Catania/Sigonella, Italy (16459): visibility: 15.05.2019 13:00:00 - 21.05.2019 13:00:00 (CEST)
Date & Time tt [°C] td [°C] ff [km/h] ff [kn] dd ppp [hPa] vv [km]
21.05.2019 13:00:00 25,0 5,0 13 7 NW - 10
21.05.2019 12:00:00 24,0 5,0 15 8 W - 10
21.05.2019 11:00:00 22,4 7,4 8 4 W 1017,1 14
21.05.2019 10:00:00 20,0 10,0 8 4 WNW - 10
21.05.2019 09:00:00 18,0 10,0 11 6 WNW - 10
21.05.2019 08:00:00 14,6 11,9 8 4 WSW 1016,5 10
21.05.2019 07:00:00 12,0 11,0 5 3 W - 10
21.05.2019 06:00:00 11,0 11,0 9 5 W - 10
21.05.2019 05:00:00 10,8 10,8 8 4 W 1015,5 10
21.05.2019 04:00:00 11,0 11,0 8 4 W - 10
21.05.2019 03:00:00 12,0 12,0 11 6 W - 10
21.05.2019 02:00:00 14,0 10,8 15 8 WNW 1015,6 10
21.05.2019 01:00:00 13,0 11,0 4 2 WSW - 10
21.05.2019 00:00:00 14,0 14,0 8 4 E - 10
20.05.2019 23:00:00 15,0 15,0 8 4 SSW 1015,3 10
20.05.2019 22:00:00 15,0 15,0 5 3 SSE - 10
20.05.2019 21:00:00 16,0 15,0 11 6 E - 10
20.05.2019 20:00:00 19,0 8,9 11 6 ESE 1013,5 18
20.05.2019 19:00:00 22,0 0,0 13 7 WSW - 10
20.05.2019 18:00:00 24,0 -1,0 18 10 W - 10
20.05.2019 17:00:00 25,0 0,5 18 10 W 1012,8 15
20.05.2019 16:00:00 26,0 4,0 26 14 WSW - 10
20.05.2019 15:00:00 25,0 4,0 21 11 WSW - 10
20.05.2019 14:00:00 25,0 3,1 24 13 WSW 1013,2 15
20.05.2019 13:00:00 - - - - - - -
20.05.2019 12:00:00 23,0 7,0 15 8 WSW - 10
20.05.2019 11:00:00 22,0 8,2 13 7 W 1013,4 15
20.05.2019 10:00:00 20,0 9,0 16 9 WNW - 10
20.05.2019 09:00:00 19,0 11,0 16 9 W - 10
20.05.2019 08:00:00 16,0 11,8 11 6 WNW 1012,9 15
20.05.2019 07:00:00 15,0 13,0 13 7 WSW - 10
20.05.2019 06:00:00 15,0 14,0 15 8 WSW - 10
20.05.2019 05:00:00 15,4 13,8 18 10 WSW 1011,7 10
20.05.2019 04:00:00 16,0 12,0 18 10 W - 10
20.05.2019 03:00:00 15,0 15,0 5 3 WNW - 10
20.05.2019 02:00:00 15,2 15,2 9 5 WSW 1011,7 10
20.05.2019 01:00:00 15,0 15,0 5 3 W - 10
20.05.2019 00:00:00 16,0 16,0 4 2 SW - 10
19.05.2019 23:00:00 16,2 16,2 5 3 WNW 1011,5 10
19.05.2019 22:00:00 17,0 17,0 9 5 W - 10
19.05.2019 21:00:00 18,0 18,0 9 5 E - 10
19.05.2019 20:00:00 19,0 18,7 16 9 E 1009,5 10
19.05.2019 19:00:00 20,0 18,0 16 9 E - 10
19.05.2019 18:00:00 20,0 16,0 24 13 E - 10
19.05.2019 17:00:00 21,4 15,9 26 14 E 1007,8 10
19.05.2019 16:00:00 22,0 17,0 28 15 E - 10
19.05.2019 15:00:00 21,0 17,0 26 14 E - 10
19.05.2019 14:00:00 22,2 14,3 29 16 E 1007,2 10
19.05.2019 13:00:00 26,0 5,0 21 11 W - 10
19.05.2019 12:00:00 25,0 6,0 24 13 WSW - 10
19.05.2019 11:00:00 23,8 9,8 24 13 W 1006,3 10
19.05.2019 10:00:00 21,0 13,0 26 14 WSW - 8
19.05.2019 09:00:00 18,0 17,0 11 6 W - 7
19.05.2019 08:00:00 14,8 14,8 11 6 W 1006,6 5
19.05.2019 07:00:00 15,0 15,0 5 3 W - 1,5
19.05.2019 06:00:00 15,0 14,0 4 2 SW - 0,3
19.05.2019 05:00:00 14,8 13,5 2 1 WNW 1006,6 7
19.05.2019 04:00:00 15,0 14,0 4 2 NNE - 7
19.05.2019 03:00:00 15,0 14,0 8 4 W - 10
19.05.2019 02:00:00 16,0 14,9 4 2 WNW 1007,4 10
19.05.2019 01:00:00 16,0 15,0 4 2 NNE - 10
19.05.2019 00:00:00 16,0 15,0 8 4 ESE - 10
18.05.2019 23:00:00 16,2 15,6 5 3 ESE 1008,4 10
18.05.2019 22:00:00 17,0 16,0 8 4 E - 10
18.05.2019 21:00:00 17,0 17,0 11 6 ENE - 8
18.05.2019 20:00:00 17,6 17,1 16 9 ENE 1007,7 8
18.05.2019 19:00:00 18,0 17,0 21 11 ENE - 10
18.05.2019 18:00:00 18,0 16,0 21 11 ENE - 10
18.05.2019 17:00:00 18,4 15,8 28 15 ENE 1007,0 10
18.05.2019 16:00:00 19,0 15,0 22 12 ENE - 10
18.05.2019 15:00:00 18,0 15,0 21 11 ENE - 10
18.05.2019 14:00:00 17,6 15,6 21 11 ENE 1009,3 10
18.05.2019 13:00:00 17,0 15,0 22 12 E - 10
18.05.2019 12:00:00 17,0 15,0 29 16 E - 10
18.05.2019 11:00:00 16,8 14,8 22 12 E 1010,1 10
18.05.2019 10:00:00 17,0 15,0 18 10 ENE - 8
18.05.2019 09:00:00 16,0 14,0 15 8 ENE - 5
18.05.2019 08:00:00 14,4 12,8 5 3 ESE 1010,2 1,5
18.05.2019 07:00:00 12,0 10,0 2 1 S - 1,5
18.05.2019 06:00:00 12,0 11,0 2 1 SE - 4,0
18.05.2019 05:00:00 11,0 9,4 4 2 S 1010,0 8
18.05.2019 04:00:00 11,0 10,0 5 3 S - 8
18.05.2019 03:00:00 13,0 11,0 8 4 WSW - 7
18.05.2019 02:00:00 14,0 12,9 5 3 NW 1011,2 7
18.05.2019 01:00:00 9,0 8,0 2 1 SW - 8
18.05.2019 00:00:00 15,0 14,0 11 6 ENE - 10
17.05.2019 23:00:00 15,8 15,2 16 9 ENE 1011,0 10
17.05.2019 22:00:00 16,0 15,0 16 9 NE - 10
17.05.2019 21:00:00 16,0 15,0 22 12 NE - 10
17.05.2019 20:00:00 17,8 16,3 22 12 NE 1009,7 12
17.05.2019 19:00:00 19,0 15,0 22 12 NE - 10
17.05.2019 18:00:00 21,0 11,0 22 12 ENE - 10
17.05.2019 17:00:00 21,0 13,0 24 13 E 1010,4 12
17.05.2019 16:00:00 21,0 11,0 26 14 E - 10
17.05.2019 15:00:00 21,0 11,0 24 13 E - 10
17.05.2019 14:00:00 21,2 10,7 24 13 E 1011,5 12
17.05.2019 13:00:00 21,0 10,0 21 11 ENE - 10
17.05.2019 12:00:00 20,0 11,0 5 3 SSE - 10
17.05.2019 11:00:00 18,4 10,3 5 3 S 1012,6 12
17.05.2019 10:00:00 17,0 11,0 5 3 WSW - 10
17.05.2019 09:00:00 15,0 13,0 5 3 NW - 10
17.05.2019 08:00:00 11,8 9,9 9 5 W 1013,1 10
17.05.2019 07:00:00 9,0 8,0 9 5 SW - 10
17.05.2019 06:00:00 9,0 8,0 8 4 W - 10
17.05.2019 05:00:00 8,6 7,4 8 4 W 1011,7 10
17.05.2019 04:00:00 9,0 8,0 11 6 WSW - 10
17.05.2019 03:00:00 10,0 6,0 21 11 NE - 10
17.05.2019 02:00:00 9,6 8,7 8 4 SSW 1011,9 10
17.05.2019 01:00:00 10,0 9,0 16 9 E - 10
17.05.2019 00:00:00 11,0 10,0 5 3 S - 10
16.05.2019 23:00:00 10,8 9,9 9 5 WSW 1011,2 10
16.05.2019 22:00:00 12,0 10,0 15 8 SW - 10
16.05.2019 21:00:00 12,0 11,0 11 6 SSW - 10
16.05.2019 20:00:00 15,0 11,6 9 5 NW 1008,8 10
16.05.2019 19:00:00 15,0 12,0 13 7 NW - 10
16.05.2019 18:00:00 13,0 12,0 13 7 W - 10
16.05.2019 17:00:00 11,6 10,4 8 4 WNW 1007,8 4,0
16.05.2019 16:00:00 12,0 11,0 22 12 NW - 4,0
16.05.2019 15:00:00 12,0 11,0 21 11 NNW - 4,0
16.05.2019 14:00:00 14,0 13,1 13 7 N 1006,4 7
16.05.2019 13:00:00 16,0 13,0 28 15 ENE - 10
16.05.2019 12:00:00 17,0 14,0 21 11 E - 10
16.05.2019 11:00:00 16,4 14,8 26 14 ENE 1006,5 8
16.05.2019 10:00:00 13,0 11,0 5 3 NW - 5
16.05.2019 09:00:00 13,0 11,0 11 6 NNE - 1,5
16.05.2019 08:00:00 12,2 10,6 15 8 NNE 1007,1 0,7
16.05.2019 07:00:00 12,0 10,0 13 7 ENE - 3,0
16.05.2019 06:00:00 11,0 10,0 8 4 S - 3,0
16.05.2019 05:00:00 11,8 10,2 5 3 S 1008,5 10
16.05.2019 04:00:00 12,0 10,0 4 2 N - 10
16.05.2019 03:00:00 11,0 10,0 5 3 WSW - 10
16.05.2019 02:00:00 12,0 10,6 11 6 W 1010,6 10
16.05.2019 01:00:00 12,0 11,0 8 4 NW - 10
16.05.2019 00:00:00 12,0 11,0 4 2 N - 10
15.05.2019 23:00:00 13,0 11,9 8 4 WNW 1011,5 10
15.05.2019 22:00:00 14,0 13,0 8 4 NNE - 10
15.05.2019 21:00:00 14,0 13,0 4 2 NE - 10
15.05.2019 20:00:00 14,8 13,2 5 3 ENE 1010,8 10
15.05.2019 19:00:00 15,0 13,0 15 8 E - 10
15.05.2019 18:00:00 15,0 14,0 16 9 ENE - 10
15.05.2019 17:00:00 15,2 13,6 22 12 E 1011,0 10
15.05.2019 16:00:00 15,0 14,0 18 10 E - 10
15.05.2019 15:00:00 18,0 13,0 18 10 ENE - 10
15.05.2019 14:00:00 18,0 11,3 18 10 E 1011,6 10
15.05.2019 13:00:00 18,0 8,0 15 8 E - 10

tt = temperature
td = dewpoint
ff = wind speed
dd = wind direction
ppp = reduced air pressure
vv = visibility

Next stations